Погода в Куртате

Россия / Республика Северная Осетия — Алания     43°05′33″N   44°44′44″E
темп.,
°C
ветер,
м/с
пор.,
м/с
влажн.,
%
обл.,
%
осадки,
мм/ч
давл.,
гПа
погр.,
м
4 марта, чт
чт400:00−3юз1387100 1.4 1026206
03:00−5ю2293100 2.4 1027101
06:00−6ююв228198 0.1 102956
09:00−2св126978 0.1 1027401
12:00+2ссв22670 0.0 1025558
15:00+3ссв22641 0.0 1024723
18:00−2в12735 0.0 1025109
21:00−3ююв22652 0.0 102639
5 марта, пт
пт500:00−3ю22620 0.0 102525
03:00−3ююв22610 0.0 102424
06:00−3ююв22570 0.0 102222
09:00+3ссв11540 0.0 1021131
12:00+6ссз10540 0.0 1019370
15:00+7с11520 0.0 1017425
18:00+2ююв01640 0.0 102024
21:00+1ююв22560 0.0 102226
6 марта, сб
сб600:00+1ю22530 0.0 102227
03:00+1ю22540 0.0 102126
06:00+1ю32490 0.0 102127
09:00+7ююв22491 0.0 101975
12:00+12с113410 0.0 1016497
15:00+12ссв11355 0.0 1015590
18:00+6ю225268 0.0 101643
21:00+4ю335184 0.0 101662
7 марта, вс
вс700:00+3ююз2251100 0.0 101736
03:00+1юз1289100 0.1 1018158
06:00−2зсз2597100 4.6 1021384
09:00−3зсз3493100 6.3 1022461
12:00−3с4592100 2.5 1022537
15:00−2с2276100 3.6 1022672
18:00−4св118298 0.1 1024180
21:00−5вюв118671 0.1 1026101
8 марта, пн
пн800:00−6юв118359 0.0 102575
03:00−6з018529 0.0 102581
06:00−6зюз018737 0.0 102498
09:00−3с127840 0.0 1022455
12:000ссв126887 0.1 1020669
15:00+1с216790 0.1 1018797
18:00−2св1179100 0.1 1019206
21:00−3ююв018397 0.3 1021114